Simultaneous Nadir Overpasses (SNOs) Predictions

Prediction of SNOs between GOES-16 and FY3D Satellite Orbit:

Table of predicted SNOs for the next 14.0 days since TLE Epoch: 7/27/2024
Index Date Time (GOES-16) GOES-16 Lat,Lon FY3D Lat,Lon Distance(km) Time Diff (sec)
1 07/27/2024 07:26:55 0.06, -75.20 -0.32, -73.38 206.87 80
2 07/28/2024 19:49:06 -0.06, -75.21 -0.87, -78.71 400.33 80
3 07/29/2024 19:33:12 -0.05, -75.21 0.15, -74.21 113.83 80
4 07/31/2024 07:55:15 0.05, -75.22 1.02, -79.51 488.80 80
5 08/01/2024 07:34:01 0.04, -75.23 -0.00, -75.01 25.56 80
6 08/03/2024 19:37:38 -0.03, -75.25 -0.15, -75.84 65.88 80
7 08/04/2024 19:21:43 -0.03, -75.27 0.89, -71.33 449.37 80
8 08/06/2024 07:43:45 0.02, -75.30 0.33, -76.62 151.38 80
9 08/07/2024 07:22:31 0.02, -75.32 -0.71, -72.12 364.48 80
10 08/08/2024 19:44:41 -0.02, -75.34 -0.52, -77.44 239.92 80
11 08/09/2024 19:28:47 -0.02, -75.37 0.52, -72.94 276.44 80
